FENGYUN 1C DEB, 32455

Orbit data source: Space-Track

FENGYUN 1C DEB, 32455 is space debris in SSO originally from a launch on Mon, 10 May 1999 UTC launched from the Taiyaun Space Center, China (TSC). Fengyun 1C debris stems from the Chinese weather satellite Fengyun-1C, which was intentionally destroyed by a Chinese anti-satellite missile in 2007. This event dramatically increased the amount of space debris, with thousands of trackable fragments posing hazards to satellites and human spaceflight. The Fengyun 1C debris cloud has become a focal point in discussions about space sustainability and the need for international regulations to prevent the creation of new debris.

Loading next visibility...
Identifier
32455, 1999-025DBT
Orbit
SSO
Country
Flag of CNCN / PRC
Related business
Manufacturer
Unknown
Mission
Spacecraft
Bus & Motor
Unknown
Mass
Unknown
Launch date (UTC)
1999-05-10 (26 years ago)
Launch vehicle
Unknown
Launch site
Taiyaun Space Center, China (TSC)
Object type
Payload
Rocket body
Debris
Shape & HBR
Unknown shape, 0.1 m
Radar Cross Section
Small (<0.1 m²)

Expand to show TLE details & history
Last TLE update: 5 days ago

TLE from 5 days ago
0 FENGYUN 1C DEB
1 32455U 99025DBT 25298.70601949  .00006259  00000-0  39158-2 0  9996
2 32455 101.7350 118.1370 0241553 263.6467  93.7125 13.91785376637477
Epoch: 2025-10-25T16:56Z
TLE epoch observation values (Epoch: 2025-10-25T16:56:40.083Z)
Latitude
-0.00003°
Longitude
-170.36273°
Altitude
940.798 km
Speed
7.374 km/s
True Right ascension
07h 52m 32s
True Declination
0° 00' 00"
Sunlit
Object was in daylight at epoch
Visualization orbit readout
Latitude
Unknown
Longitude
Unknown
Altitude
Unknown
Speed
Unknown
Apparent Right ascension
Unknown
Apparent Declination
Unknown
Sunlit
N/A
Visualization observer readout
Local Sidereal Time
04:19:51
Azimuth
Unknown
Elevation
Unknown
Doppler factor
Unknown
Orbital elements
Apogee altitude
1,096.024 km
Perigee altitude
743.459 km
Semi-major axis
7,297.879 km
Eccentricity
0.02416
Inclination
101.735°
RAAN
118.137°
Arg. of periapsis
263.6467°
True anomaly
96.46823°
Mean anomaly
93.7125°
Eccentric anomaly
95.09104°
Mean motion
3.48135 °/min
Orbital period
103.41 mins
BSTAR
0.0039158
Loading maneuver chart data...
Computing Atmospheric mass density...
Loading historical data...
Loading historical data...
Loading historical data...
Loading historical data...
Loading historical data...
Loading historical data...
Loading historical data...

Documentation

Showing up to 5 results
|